Location: Bergnershof
(48.9468°N, 10.9431°E)
Time: 16:09:17
(UTC+00:00)

Cosmos 2333 Rocket - Pass Details

Date: 26 June 2021
Orbit: 841 x 861 km, 70.8° (Epoch: 28 July)

Event Time Altitude Azimuth Distance (km) Brightness Sun altitude
Rises 20:47:48 0° 234° (SW) 3,423 5.4 -10.2°
Reaches altitude 10° 20:50:26 10° 243° (WSW) 2,488 4.7 -10.5°
Maximum altitude 20:55:42 37° 310° (NW) 1,308 3.9 -11.0°
Drops below altitude 10° 21:00:59 10° 17° (NNE) 2,488 5.2 -11.4°
Sets 21:03:38 0° 26° (NNE) 3,424 5.8 -11.7°
